NKS8051 KFLL-MDST

Flight info

Callsign NKS8051
Flight time N/A
Altitude 35000
Route SNAPR2 SUMAC Y443 RUMFO Y441 JUELE JUELE2P
Aircraft A321/M-SDE3FGHIRWY/LB1

Departure

Time 2026-05-05 14:28
Airport Fort Lauderdale Hollywood International Airport (KFLL)

Arrival

Time N/A
Airport Cibao International Airport (MDST)
Time Latitude Longitude Altitude Speed Heading
2026-05-05 13:58 26.06878 -80.14211 16 ft 0 kts
2026-05-05 14:17 26.06875 -80.14211 16 ft 3 kts 360°
2026-05-05 14:17 26.06851 -80.14211 17 ft 3 kts 359°
2026-05-05 14:18 26.06828 -80.14206 18 ft 4 kts 313°
2026-05-05 14:18 26.06819 -80.14182 17 ft 4 kts 272°
2026-05-05 14:18 26.06818 -80.14169 17 ft 1 kts 270°
2026-05-05 14:18 26.06818 -80.14168 17 ft 0 kts 270°
2026-05-05 14:20 26.06818 -80.14181 17 ft 4 kts 270°
2026-05-05 14:21 26.06814 -80.14223 16 ft 6 kts 255°
2026-05-05 14:21 26.06787 -80.14274 15 ft 9 kts 233°
2026-05-05 14:21 26.06767 -80.14336 15 ft 9 kts 269°
2026-05-05 14:21 26.06767 -80.14405 15 ft 9 kts 271°
2026-05-05 14:22 26.06768 -80.14480 15 ft 10 kts 271°
2026-05-05 14:22 26.06767 -80.14567 15 ft 13 kts 267°
2026-05-05 14:22 26.06765 -80.14676 15 ft 14 kts 271°
2026-05-05 14:22 26.06766 -80.14789 15 ft 15 kts 270°
2026-05-05 14:23 26.06767 -80.14906 15 ft 15 kts 270°
2026-05-05 14:23 26.06767 -80.15026 16 ft 16 kts 270°
2026-05-05 14:23 26.06768 -80.15148 16 ft 16 kts 270°
2026-05-05 14:23 26.06769 -80.15273 16 ft 16 kts 270°
2026-05-05 14:24 26.06769 -80.15402 16 ft 17 kts 270°
2026-05-05 14:24 26.06769 -80.15477 16 ft 8 kts 270°
2026-05-05 14:24 26.06738 -80.15529 16 ft 9 kts 194°
2026-05-05 14:24 26.06699 -80.15575 16 ft 9 kts 260°
2026-05-05 14:25 26.06698 -80.15646 16 ft 10 kts 270°
2026-05-05 14:25 26.06698 -80.15723 16 ft 10 kts 270°
2026-05-05 14:25 26.06695 -80.15793 16 ft 7 kts 251°
2026-05-05 14:25 26.06687 -80.15807 16 ft 0 kts 232°
2026-05-05 14:26 26.06686 -80.15809 16 ft 1 kts 232°
2026-05-05 14:26 26.06670 -80.15820 16 ft 4 kts 198°
2026-05-05 14:26 26.06624 -80.15822 17 ft 8 kts 180°
2026-05-05 14:26 26.06587 -80.15805 18 ft 5 kts 111°
2026-05-05 14:27 26.06589 -80.15773 19 ft 4 kts 90°
2026-05-05 14:27 26.06589 -80.15667 22 ft 40 kts 90°
2026-05-05 14:27 26.06586 -80.15085 20 ft 108 kts 90°
2026-05-05 14:27 26.06582 -80.14044 98 ft 155 kts 89°
2026-05-05 14:28 26.06604 -80.12880 829 ft 148 kts 87°
2026-05-05 14:28 26.06620 -80.11727 1368 ft 153 kts 87°
2026-05-05 14:28 26.06637 -80.10484 1624 ft 169 kts 87°
2026-05-05 14:28 26.06653 -80.09098 1770 ft 191 kts 88°
2026-05-05 14:29 26.06673 -80.07528 1898 ft 213 kts 88°
2026-05-05 14:29 26.06695 -80.05786 2143 ft 238 kts 88°
2026-05-05 14:29 26.06715 -80.03859 2614 ft 257 kts 89°
2026-05-05 14:29 26.06732 -80.01843 3228 ft 263 kts 89°
2026-05-05 14:30 26.06742 -79.99789 3878 ft 268 kts 89°
2026-05-05 14:30 26.06728 -79.97698 4526 ft 273 kts 90°
2026-05-05 14:30 26.06702 -79.95562 5166 ft 278 kts 90°
2026-05-05 14:30 26.06675 -79.93397 5793 ft 283 kts 91°
2026-05-05 14:31 26.06647 -79.91186 6415 ft 288 kts 90°
2026-05-05 14:31 26.06621 -79.88954 7029 ft 291 kts 90°
2026-05-05 14:31 26.06598 -79.86680 7635 ft 295 kts 90°
2026-05-05 14:31 26.06578 -79.84385 8235 ft 299 kts 91°
2026-05-05 14:32 26.06415 -79.82068 8816 ft 303 kts 101°
2026-05-05 14:32 26.06050 -79.79738 9376 ft 308 kts 101°
2026-05-05 14:32 26.05681 -79.77404 9944 ft 313 kts 101°
2026-05-05 14:32 26.05299 -79.74994 10366 ft 323 kts 101°
2026-05-05 14:33 26.04896 -79.72457 10477 ft 343 kts 101°
2026-05-05 14:33 26.04471 -79.69771 10600 ft 362 kts 101°
2026-05-05 14:33 26.04033 -79.66957 10894 ft 374 kts 101°
2026-05-05 14:33 26.03573 -79.64091 11375 ft 378 kts 102°
2026-05-05 14:34 26.03002 -79.61236 11892 ft 382 kts 104°
2026-05-05 14:34 26.02335 -79.58353 12414 ft 385 kts 106°
2026-05-05 14:34 26.01621 -79.55461 12922 ft 389 kts 106°
2026-05-05 14:34 26.00889 -79.52549 13431 ft 393 kts 106°
2026-05-05 14:35 26.00157 -79.49608 13934 ft 396 kts 106°
2026-05-05 14:35 25.99433 -79.46639 14379 ft 400 kts 105°
2026-05-05 14:35 25.98713 -79.43627 14829 ft 404 kts 105°
2026-05-05 14:35 25.98000 -79.40597 15280 ft 407 kts 105°
2026-05-05 14:36 25.97205 -79.37567 15704 ft 411 kts 111°
2026-05-05 14:36 25.96191 -79.34626 16135 ft 414 kts 111°
2026-05-05 14:36 25.95151 -79.31631 16579 ft 418 kts 111°
2026-05-05 14:36 25.94098 -79.28605 17012 ft 421 kts 111°
2026-05-05 14:37 25.93036 -79.25553 17443 ft 425 kts 111°
2026-05-05 14:37 25.91967 -79.22478 17877 ft 429 kts 111°
2026-05-05 14:37 25.90888 -79.19374 18318 ft 432 kts 111°
2026-05-05 14:37 25.89801 -79.16252 18685 ft 436 kts 111°
2026-05-05 14:38 25.88701 -79.13103 19057 ft 439 kts 111°
2026-05-05 14:38 25.87591 -79.09933 19434 ft 442 kts 111°
2026-05-05 14:38 25.86470 -79.06735 19814 ft 445 kts 111°
2026-05-05 14:38 25.85345 -79.03524 20196 ft 448 kts 111°
2026-05-05 14:39 25.84212 -79.00285 20578 ft 451 kts 111°
2026-05-05 14:39 25.83073 -78.97028 20970 ft 454 kts 111°
2026-05-05 14:39 25.81923 -78.93747 21334 ft 457 kts 111°
2026-05-05 14:39 25.80763 -78.90444 21696 ft 460 kts 111°
2026-05-05 14:40 25.79595 -78.87127 22048 ft 463 kts 111°
2026-05-05 14:40 25.78417 -78.83788 22390 ft 466 kts 111°
2026-05-05 14:40 25.77233 -78.80428 22727 ft 469 kts 111°
2026-05-05 14:40 25.76044 -78.77044 23063 ft 472 kts 111°
2026-05-05 14:41 25.74843 -78.73643 23388 ft 474 kts 113°
2026-05-05 14:41 25.73357 -78.70372 23687 ft 476 kts 122°
2026-05-05 14:41 25.71517 -78.67310 23961 ft 478 kts 126°
2026-05-05 14:41 25.69636 -78.64263 24248 ft 480 kts 126°
2026-05-05 14:42 25.67748 -78.61204 24547 ft 482 kts 126°
2026-05-05 14:42 25.65857 -78.58132 24833 ft 483 kts 126°
2026-05-05 14:42 25.63962 -78.55045 25129 ft 485 kts 126°
2026-05-05 14:42 25.62065 -78.51949 25422 ft 487 kts 126°
2026-05-05 14:43 25.60157 -78.48837 25717 ft 489 kts 126°
2026-05-05 14:43 25.58388 -78.45610 25991 ft 492 kts 117°
2026-05-05 14:43 25.57044 -78.42122 26263 ft 494 kts 108°
2026-05-05 14:43 25.56082 -78.38466 26536 ft 495 kts 105°
2026-05-05 14:44 25.55152 -78.34792 26816 ft 497 kts 105°
2026-05-05 14:44 25.54221 -78.31148 27095 ft 499 kts 105°
2026-05-05 14:44 25.53272 -78.27455 27368 ft 501 kts 105°
2026-05-05 14:44 25.52313 -78.23731 27644 ft 503 kts 105°
2026-05-05 14:45 25.51351 -78.20003 27915 ft 504 kts 105°
2026-05-05 14:45 25.50390 -78.16266 28181 ft 506 kts 105°
2026-05-05 14:45 25.49426 -78.12508 28439 ft 508 kts 105°